This is the latest recevied weather packets stored in our database for station/object K0APR. If no packets are shown the sender has not sent any weather packets the latest 10 day(s).
| Time | Temp. | Humidity | Pressure | Rain* | Wind** | Luminosity | Snow |
|---|---|---|---|---|---|---|---|
| 1788627952 | 27.22° C | 72% | 1015.5 hPa | 0 mm | - | 478 W/m² | - |
| 1788627647 | 26.67° C | 71% | 1015.8 hPa | 0 mm | - | 507 W/m² | - |
| 1788627342 | 26.11° C | 73% | 1015.5 hPa | 0 mm | - | 537 W/m² | - |
| 1788627038 | 26.11° C | 76% | 1015.5 hPa | 0 mm | - | 482 W/m² | - |
| 1788626738 | 25° C | 78% | 1016.1 hPa | 0 mm | - | 489 W/m² | - |
| 1788626432 | 25° C | 79% | 1016.1 hPa | 0 mm | - | 399 W/m² | - |
| 1788626128 | 25° C | 81% | 1016.1 hPa | 0 mm | - | 421 W/m² | - |
| 1788625824 | 24.44° C | 82% | 1016.5 hPa | 0 mm | - | 504 W/m² | - |
| 1788625520 | 23.89° C | 85% | 1016.5 hPa | 0 mm | - | 568 W/m² | - |
| 1788625215 | 23.33° C | 86% | 1016.5 hPa | 0 mm | - | 482 W/m² | - |
| 1788624915 | 22.78° C | 87% | 1016.5 hPa | 0 mm | - | 451 W/m² | - |
| 1788624613 | 22.78° C | 88% | 1016.5 hPa | 0 mm | - | 425 W/m² | - |
| 1788624312 | 22.22° C | 90% | 1016.1 hPa | 0 mm | - | 294 W/m² | - |
| 1788624012 | 21.67° C | 91% | 1016.1 hPa | 0 mm | - | 346 W/m² | - |
| 1788623712 | 21.67° C | 92% | 1016.1 hPa | 0 mm | - | 308 W/m² | - |
| 1788623410 | 21.11° C | 93% | 1015.8 hPa | 0 mm | - | 309 W/m² | - |
| 1788623106 | 21.11° C | 94% | 1016.1 hPa | 0 mm | - | 223 W/m² | - |
| 1788622801 | 21.11° C | 94% | 1015.5 hPa | 0 mm | - | 204 W/m² | - |
| 1788622497 | 21.11° C | 95% | 1015.8 hPa | 0 mm | - | 190 W/m² | - |
| 1788622197 | 20.56° C | 95% | 1015.8 hPa | 0 mm | - | 179 W/m² | - |
| 1788621896 | 20.56° C | 96% | 1015.5 hPa | 0 mm | - | 176 W/m² | - |
| 1788621597 | 20.56° C | 96% | 1015.8 hPa | 0 mm | - | 169 W/m² | - |
| 1788621293 | 20.56° C | 96% | 1015.8 hPa | 0 mm | - | 165 W/m² | - |
| 1788620993 | 20.56° C | 96% | 1015.8 hPa | 0 mm | - | 158 W/m² | - |
| 1788620711 | 20.56° C | 96% | 1015.8 hPa | 0 mm | - | 150 W/m² | - |
* Rain latest hour (hover to see other rain measurements)
** Current wind speed in m/s (hover to see current wind gust speed)